Regional Weather Roundup
Issued by NWS Kansas City/Pleasant Hill, MO

Home | Current Version | Previous Version | Text Only | Print | Product List | Glossary On
Versions: 1 2 3 4 5 6 7 8 9 10 11 12 13 14 15 16 17 18 19 20 21 22 23 24 25 26 27 28 29 30 31 32 33 34 35 36 37 38 39 40 41 42 43 44 45 46 47 48 49 50
000
ASUS43 KEAX 011010
RWREAX

WEATHER ROUNDUP FOR EASTERN KANSAS AND NORTHWEST MISSOURI
NATIONAL WEATHER SERVICE KANSAS CITY/PLEASANT HILL MO
500 AM CDT SAT AUG 01 2015

KSZ040-057-103>105-MOZ028-029-037-043-011100-
...KANSAS CITY METROPOLITAN AREA...

CITY           SKY/WX    TMP DP  RH WIND       PRES   REMARKS
K.C. INTL      CLEAR     71  67  87 S6        30.04F
K.C. DOWNTOWN  CLEAR     75  67  76 SW5       30.03F
LEES SUMMIT    CLEAR     72  66  81 SW6       30.06S
OLATHE - IXD   CLEAR     73  69  87 SW6       30.07S
OLATHE - OJC   CLEAR     70  68  93 SW5       30.06S
LAWRENCE       CLEAR     69  67  93 SE3       30.05S

$$

MOZ001>008-011>017-020>025-030>033-038>040-044>046-053-054-011100-
...NORTHERN AND CENTRAL MISSOURI...

CITY           SKY/WX    TMP DP  RH WIND       PRES   REMARKS
ST. JOSEPH     CLEAR     71  69  93 CALM      30.04F
MOSBY          SUNNY     70  70 100 CALM      30.04F
WARRENSBURG    CLEAR     68  64  88 S3        30.05S
WHITEMAN AFB   CLEAR     68  65  88 SW8       30.04S
CLINTON        CLEAR     70  68  94 CALM      30.06S
SEDALIA        CLEAR     69  65  86 S3        30.06S
WARSAW         NOT AVBL
CHILLICOTHE      N/A     70  67  90 CALM      30.05F
KIRKSVILLE     PTCLDY    70  63  78 E3        30.06F

$$

MOZ041-047>049-056>058-063>065-088>090-097-011100-
...EASTERN AND SOUTHERN MISSOURI...

CITY           SKY/WX    TMP DP  RH WIND       PRES   REMARKS
ST. LOUIS INTL PTCLDY    74  67  78 CALM      30.04S
SPIRIT OF STL  CLEAR     67  67 100 CALM      30.02S
COLUMBIA       CLEAR     69  67  93 S5        30.04F
JEFFERSON CITY CLEAR     68  66  93 CALM      30.04F
ROLLA          CLEAR     64  62  93 SW6       30.06S
OSAGE BEACH    CLEAR     64  63  94 CALM      30.06F
SPRINGFIELD    CLEAR     64  58  80 S3        30.08S
BRANSON        CLEAR     66  61  82 CALM      30.10S
JOPLIN         CLEAR     61  58  90 CALM      30.09R
WEST PLAINS    CLEAR     66  60  81 CALM      30.09F

$$

IAZ060-094-KSZ022-034>040-054-083-096-NEZ052-066-093-011100-
...KANSAS...SOUTHEAST NEBRASKA AND IOWA...

CITY           SKY/WX    TMP DP  RH WIND       PRES   REMARKS
TOPEKA         CLEAR     71  68  90 CALM      30.05S
MANHATTAN      CLEAR     70  68  93 CALM      30.05F
EMPORIA        CLEAR     70  69  97 SW5       30.07F FOG
CHANUTE        FOG       67  67 100 CALM      30.09R VSB 1/2
WICHITA        PTCLDY    72  70  93 S3        30.08F
OMAHA          PTCLDY    71  67  87 CALM      30.04S
LINCOLN        MOCLDY    67  63  87 CALM      30.05F
FALLS CITY     CLEAR     70  68  93 CALM      30.03S
LAMONI         CLEAR     68  65  90 CALM      30.05F
DES MOINES     PTCLDY    69  65  86 S6        30.03F

$$




USA.gov is the U.S. government's official web portal to all federal, state and local government web resources and services.